(19) Fortuna
ephemeris date magn radius delta ra dec elong phase
Today12 Jul 202613.12.804 AU3.033 AU11h47m+00°58'67.4°19.6°
Opposition13 Jun 202710.82.656 AU1.641 AU17h28m-21°15'177.9°0.8°
(19) Fortuna - 2026-07-12
astro.vanbuitenen.nl


 
-1 year
-1 month
-1 day
Now
+1 day
+1 month
+1 year

The interactive orbit chart above shows the body's path through the solar system and its position at the given date. Green and blue lines are shown perpendicular to the ecliptic plane: Green if the path is above the ecliptic plane, blue if it is below. (Left-click and drag to rotate the view; Right-click and drag to move the view; Use scroll wheel to zoom in our out.)

The orbital elements of Fortuna are:

            e (Eccentricity)                : 0.1581145
            a (Semimajor axis)              : 2.4415099
            i (Inclination)                 : 1.57353
            Ω (Longitude of ascending node) : 210.99217
            ω (Argument of perihelion)      : 182.43593
            M (Mean anomaly)                : 148.26220
            Epoch                           : 2026 Jun 09

            L (Longitude of perihelion)     : 213.42718
            B (Latitude of perihelion)      : -0.06687
            P (Orbital period in years)     : 3.81            
        

The light curve chart below shows the estimated development of the minor planet's magnitude.


The all-sky chart below shows the path of the minor planet over the same period as the light curve. The current position is marked yellow.





The following chart shows the path of the minor planet in the next few days. The field of view is optimized for (~10x50) binoculars and finderscopes.




Ephemerides:
Date       Time       RA (2000)    DEC (2000)    delta   radius  elong  phase   PA    magn
2026-07-12 00:00 UT   11 47 16.7   +00 58 24     3.033    2.804   67.4   19.6   114   13.1 
2026-07-12 09:39 UT   11 47 43.1   +00 55 42     3.039    2.804   67.1   19.5   114   13.1 
2026-07-13 00:00 UT   11 48 22.6   +00 51 41     3.046    2.805   66.7   19.4   114   13.1 
2026-07-14 00:00 UT   11 49 28.9   +00 44 54     3.059    2.805   66.1   19.3   114   13.1 
2026-07-15 00:00 UT   11 50 35.7   +00 38 04     3.072    2.806   65.4   19.2   114   13.1 
2026-07-16 00:00 UT   11 51 43.0   +00 31 11     3.085    2.806   64.8   19.1   114   13.1 
2026-07-17 00:00 UT   11 52 50.8   +00 24 14     3.097    2.807   64.1   19.0   114   13.1 
2026-07-18 00:00 UT   11 53 59.0   +00 17 14     3.110    2.807   63.5   18.9   114   13.1 
2026-07-19 00:00 UT   11 55 07.6   +00 10 11     3.122    2.808   62.8   18.8   114   13.2 
2026-07-20 00:00 UT   11 56 16.7   +00 03 05     3.135    2.808   62.2   18.7   114   13.2 
2026-07-21 00:00 UT   11 57 26.1   +00 04 04     3.147    2.808   61.5   18.5   114   13.2 
2026-07-22 00:00 UT   11 58 36.0   +00 11 16     3.159    2.809   60.9   18.4   114   13.2 
2026-07-23 00:00 UT   11 59 46.3   +00 18 31     3.171    2.809   60.2   18.3   114   13.2 
2026-07-24 00:00 UT   12 00 57.1   +00 25 48     3.184    2.810   59.6   18.2   114   13.2 
2026-07-25 00:00 UT   12 02 08.2   +00 33 08     3.196    2.810   59.0   18.0   114   13.2 
2026-07-26 00:00 UT   12 03 19.6   +00 40 31     3.207    2.811   58.3   17.9   114   13.2 
2026-07-27 00:00 UT   12 04 31.5   +00 47 57     3.219    2.811   57.7   17.8   114   13.2 
2026-07-28 00:00 UT   12 05 43.8   +00 55 25     3.231    2.812   57.1   17.6   114   13.2 
2026-07-29 00:00 UT   12 06 56.4   -01 02 55     3.243    2.812   56.5   17.5   114   13.2 
2026-07-30 00:00 UT   12 08 09.4   -01 10 28     3.254    2.812   55.8   17.4   114   13.2 
2026-07-31 00:00 UT   12 09 22.7   -01 18 04     3.266    2.813   55.2   17.2   114   13.2 
2026-08-01 00:00 UT   12 10 36.4   -01 25 41     3.277    2.813   54.6   17.1   114   13.2 
2026-08-02 00:00 UT   12 11 50.5   -01 33 21     3.288    2.814   54.0   17.0   114   13.2 
2026-08-03 00:00 UT   12 13 04.8   -01 41 03     3.300    2.814   53.3   16.8   114   13.2 
2026-08-04 00:00 UT   12 14 19.6   -01 48 48     3.311    2.815   52.7   16.7   114   13.2 
2026-08-05 00:00 UT   12 15 34.7   -01 56 34     3.322    2.815   52.1   16.5   114   13.2 
2026-08-06 00:00 UT   12 16 50.1   -02 04 23     3.333    2.815   51.5   16.4   114   13.2 
2026-08-07 00:00 UT   12 18 05.8   -02 12 13     3.344    2.816   50.9   16.2   114   13.2 


    Terminology:
            
    delta:  distance between minor planet and earth in AU
    radius: distance between minor planet and sun in AU
    magn:   magnitude (brightness) estimate    
    ra:     right ascension in hours (24h = 360deg)
    dec:    declination in degrees
    elong:  elongation in degrees (angle sun-earth-minor planet)    
    phase:  phase angle in degrees (angle sun-minor planet-earth)        
    AU:     Astronomical Unit (mean distance between earth and sun: 149597870.7 km
    

Orbital elements provided by the MPC (Minor Planet Center).
Calculations by a modified version of AAPlus, a C# implementation of the AA+ project by PJ Naughter from the algorithms presented in the book "Astronomical Algorithms" by Jean Meeus.
NGC2000 dso catalog and star labels from VizieR as provided by the Strasbourg astronomical Data Center.
Tycho2 catalog from the ESO archive.